DRK401 VNKT-VQPR

Flight info

Callsign DRK401
Flight time 0h 43m
Altitude 35000
Route KIMTI G348 SUBSU DCT TAKTI DCT PRO DCT PR
Aircraft A319/M-SDE3FGHIRWY/LB1

Departure

Time 2026-04-27 06:19
Airport Tribhuvan International Airport (VNKT)

Arrival

Time 2026-04-27 07:02
Airport Paro International Airport (VQPR)
Time Latitude Longitude Altitude Speed Heading
2026-04-27 05:52 27.70141 85.35923 4395 ft 0 kts 292°
2026-04-27 06:08 27.70139 85.35929 4395 ft 4 kts 292°
2026-04-27 06:08 27.70129 85.35957 4396 ft 4 kts 289°
2026-04-27 06:09 27.70123 85.35987 4398 ft 4 kts 263°
2026-04-27 06:09 27.70132 85.36010 4400 ft 3 kts 203°
2026-04-27 06:09 27.70138 85.36013 4401 ft 1 kts 201°
2026-04-27 06:13 27.70129 85.36009 4401 ft 4 kts 202°
2026-04-27 06:13 27.70081 85.35988 4399 ft 9 kts 200°
2026-04-27 06:13 27.70016 85.35958 4397 ft 11 kts 203°
2026-04-27 06:14 27.69942 85.35924 4397 ft 12 kts 201°
2026-04-27 06:14 27.69861 85.35888 4395 ft 13 kts 202°
2026-04-27 06:14 27.69766 85.35845 4392 ft 16 kts 203°
2026-04-27 06:14 27.69658 85.35794 4388 ft 18 kts 202°
2026-04-27 06:15 27.69541 85.35741 4386 ft 19 kts 202°
2026-04-27 06:15 27.69406 85.35679 4365 ft 23 kts 202°
2026-04-27 06:15 27.69252 85.35609 4362 ft 21 kts 201°
2026-04-27 06:15 27.69133 85.35555 4358 ft 15 kts 201°
2026-04-27 06:16 27.69067 85.35594 4354 ft 11 kts 129°
2026-04-27 06:16 27.69011 85.35618 4354 ft 10 kts 200°
2026-04-27 06:16 27.68931 85.35582 4354 ft 14 kts 201°
2026-04-27 06:16 27.68828 85.35535 4340 ft 18 kts 202°
2026-04-27 06:17 27.68696 85.35474 4341 ft 22 kts 201°
2026-04-27 06:17 27.68549 85.35407 4338 ft 24 kts 201°
2026-04-27 06:17 27.68458 85.35335 4332 ft 11 kts 244°
2026-04-27 06:17 27.68402 85.35342 4332 ft 7 kts 91°
2026-04-27 06:18 27.68418 85.35351 4333 ft 1 kts 10°
2026-04-27 06:18 27.68426 85.35353 4333 ft 3 kts 14°
2026-04-27 06:18 27.68526 85.35398 4337 ft 40 kts 22°
2026-04-27 06:18 27.68996 85.35611 4354 ft 103 kts 22°
2026-04-27 06:19 27.69824 85.35989 4399 ft 152 kts 21°
2026-04-27 06:19 27.70871 85.36465 4831 ft 154 kts 20°
2026-04-27 06:19 27.71903 85.36789 5270 ft 158 kts 357°
2026-04-27 06:19 27.72914 85.36389 5735 ft 156 kts 320°
2026-04-27 06:20 27.73537 85.35388 6030 ft 168 kts 285°
2026-04-27 06:20 27.73487 85.34047 6281 ft 183 kts 246°
2026-04-27 06:20 27.72862 85.32734 6643 ft 194 kts 242°
2026-04-27 06:20 27.72210 85.31365 7112 ft 200 kts 243°
2026-04-27 06:21 27.71467 85.30036 7650 ft 204 kts 225°
2026-04-27 06:21 27.70169 85.29405 8165 ft 211 kts 182°
2026-04-27 06:21 27.68799 85.29937 8681 ft 216 kts 140°
2026-04-27 06:21 27.68058 85.31399 9216 ft 219 kts 105°
2026-04-27 06:22 27.67685 85.33060 9801 ft 219 kts 103°
2026-04-27 06:22 27.67332 85.34743 10302 ft 221 kts 103°
2026-04-27 06:22 27.66962 85.36453 10610 ft 236 kts 104°
2026-04-27 06:22 27.66526 85.38369 10762 ft 262 kts 104°
2026-04-27 06:23 27.66044 85.40444 11020 ft 285 kts 104°
2026-04-27 06:23 27.65518 85.42698 11267 ft 309 kts 104°
2026-04-27 06:23 27.64952 85.45100 11493 ft 332 kts 104°
2026-04-27 06:23 27.64333 85.47704 11679 ft 355 kts 105°
2026-04-27 06:24 27.63683 85.50439 12106 ft 366 kts 104°
2026-04-27 06:24 27.63017 85.53237 12692 ft 372 kts 104°
2026-04-27 06:24 27.62342 85.56072 13321 ft 376 kts 104°
2026-04-27 06:24 27.61661 85.58942 13881 ft 381 kts 104°
2026-04-27 06:25 27.60994 85.61861 14431 ft 385 kts 100°
2026-04-27 06:25 27.60722 85.64867 14976 ft 387 kts 92°
2026-04-27 06:25 27.60547 85.67908 15551 ft 390 kts 92°
2026-04-27 06:25 27.60364 85.70972 16113 ft 393 kts 94°
2026-04-27 06:26 27.59886 85.74027 16692 ft 397 kts 100°
2026-04-27 06:26 27.59306 85.77082 17283 ft 400 kts 100°
2026-04-27 06:26 27.58717 85.80157 17859 ft 403 kts 100°
2026-04-27 06:26 27.58116 85.83261 18413 ft 406 kts 100°
2026-04-27 06:27 27.57511 85.86379 18872 ft 410 kts 100°
2026-04-27 06:27 27.56898 85.89533 19310 ft 415 kts 100°
2026-04-27 06:27 27.56281 85.92729 19796 ft 420 kts 100°
2026-04-27 06:27 27.55657 85.95965 20280 ft 424 kts 100°
2026-04-27 06:28 27.55027 85.99233 20718 ft 429 kts 100°
2026-04-27 06:28 27.54392 86.02525 21179 ft 433 kts 100°
2026-04-27 06:28 27.53755 86.05820 21630 ft 437 kts 100°
2026-04-27 06:28 27.53096 86.09229 22028 ft 443 kts 100°
2026-04-27 06:29 27.52435 86.12631 22466 ft 447 kts 100°
2026-04-27 06:29 27.51773 86.16025 22843 ft 451 kts 100°
2026-04-27 06:29 27.51098 86.19482 23274 ft 455 kts 100°
2026-04-27 06:29 27.50411 86.22984 23661 ft 458 kts 100°
2026-04-27 06:30 27.49723 86.26498 24006 ft 462 kts 100°
2026-04-27 06:30 27.49032 86.30047 24401 ft 465 kts 100°
2026-04-27 06:30 27.48346 86.33610 24772 ft 467 kts 99°
2026-04-27 06:30 27.47660 86.37207 25167 ft 470 kts 99°
2026-04-27 06:31 27.46976 86.40807 25530 ft 472 kts 99°
2026-04-27 06:31 27.46284 86.44440 25905 ft 475 kts 99°
2026-04-27 06:31 27.45589 86.48083 26278 ft 478 kts 99°
2026-04-27 06:31 27.44888 86.51747 26641 ft 480 kts 99°
2026-04-27 06:32 27.44185 86.55413 27024 ft 482 kts 100°
2026-04-27 06:32 27.43467 86.59128 27390 ft 485 kts 100°
2026-04-27 06:32 27.42743 86.62846 27731 ft 488 kts 100°
2026-04-27 06:32 27.42018 86.66583 28079 ft 490 kts 100°
2026-04-27 06:33 27.41288 86.70353 28416 ft 493 kts 100°
2026-04-27 06:33 27.40553 86.74126 28772 ft 496 kts 100°
2026-04-27 06:33 27.39812 86.77926 29068 ft 499 kts 100°
2026-04-27 06:33 27.39066 86.81748 29337 ft 502 kts 100°
2026-04-27 06:34 27.38316 86.85583 29701 ft 503 kts 100°
2026-04-27 06:34 27.37571 86.89389 30019 ft 505 kts 100°
2026-04-27 06:34 27.36802 86.93312 30274 ft 508 kts 100°
2026-04-27 06:34 27.36037 86.97205 30549 ft 511 kts 100°
2026-04-27 06:35 27.35278 87.01060 30880 ft 511 kts 100°
2026-04-27 06:35 27.34505 87.05008 31299 ft 509 kts 100°
2026-04-27 06:35 27.33755 87.08836 31674 ft 508 kts 100°
2026-04-27 06:35 27.32991 87.12705 32096 ft 506 kts 100°
2026-04-27 06:36 27.32183 87.16553 32503 ft 507 kts 104°
2026-04-27 06:36 27.30971 87.20279 32877 ft 508 kts 113°
2026-04-27 06:36 27.29297 87.23774 33241 ft 508 kts 122°
2026-04-27 06:36 27.27422 87.27141 33633 ft 507 kts 122°
2026-04-27 06:37 27.25566 87.30497 34030 ft 505 kts 121°
2026-04-27 06:37 27.23724 87.33847 34338 ft 505 kts 122°
2026-04-27 06:37 27.21881 87.37209 34613 ft 506 kts 122°
2026-04-27 06:37 27.20034 87.40578 34831 ft 506 kts 122°
2026-04-27 06:38 27.16342 87.47296 34893 ft 504 kts 122°
2026-04-27 06:38 27.12643 87.53981 34885 ft 504 kts 122°
2026-04-27 06:39 27.08929 87.60658 34883 ft 505 kts 122°
2026-04-27 06:39 27.05212 87.67336 34882 ft 505 kts 122°
2026-04-27 06:40 27.01495 87.74017 34883 ft 505 kts 122°
2026-04-27 06:40 26.97779 87.80697 34877 ft 505 kts 123°
2026-04-27 06:41 26.94084 87.87330 34870 ft 504 kts 123°
2026-04-27 06:41 26.92226 87.90659 34672 ft 503 kts 123°
2026-04-27 06:41 26.90371 87.93983 34007 ft 504 kts 122°
2026-04-27 06:42 26.88534 87.97271 33275 ft 506 kts 122°
2026-04-27 06:42 26.86660 88.00622 32502 ft 508 kts 122°
2026-04-27 06:42 26.84756 88.04023 31720 ft 510 kts 122°
2026-04-27 06:42 26.82899 88.07335 30948 ft 512 kts 122°
2026-04-27 06:43 26.80969 88.10774 30101 ft 515 kts 122°
2026-04-27 06:43 26.79053 88.14185 29214 ft 517 kts 122°
2026-04-27 06:43 26.77175 88.17523 28571 ft 512 kts 122°
2026-04-27 06:43 26.75269 88.20918 27968 ft 506 kts 121°
2026-04-27 06:44 26.73462 88.24217 27377 ft 500 kts 118°
2026-04-27 06:44 26.72126 88.27773 26805 ft 492 kts 104°
2026-04-27 06:44 26.71542 88.31491 26253 ft 482 kts 90°
2026-04-27 06:44 26.71683 88.35188 25701 ft 470 kts 77°
2026-04-27 06:45 26.72493 88.38674 25157 ft 458 kts 64°
2026-04-27 06:45 26.73885 88.41820 24624 ft 447 kts 53°
2026-04-27 06:45 26.75508 88.44766 24080 ft 443 kts 53°
2026-04-27 06:45 26.77117 88.47694 23552 ft 439 kts 54°
2026-04-27 06:46 26.78704 88.50595 22970 ft 435 kts 54°
2026-04-27 06:46 26.80272 88.53473 22393 ft 431 kts 54°
2026-04-27 06:46 26.81830 88.56334 22057 ft 430 kts 55°
2026-04-27 06:46 26.83382 88.59183 21803 ft 429 kts 55°
2026-04-27 06:47 26.84931 88.62025 21570 ft 427 kts 55°
2026-04-27 06:47 26.86481 88.64864 21331 ft 425 kts 55°
2026-04-27 06:47 26.88026 88.67695 21094 ft 424 kts 55°
2026-04-27 06:47 26.89558 88.70500 20853 ft 422 kts 55°
2026-04-27 06:48 26.91088 88.73305 20624 ft 421 kts 55°
2026-04-27 06:48 26.92589 88.76062 20388 ft 419 kts 56°
2026-04-27 06:48 26.94100 88.78844 20158 ft 417 kts 56°
2026-04-27 06:48 26.95604 88.81620 19928 ft 416 kts 56°
2026-04-27 06:49 26.97019 88.84442 19707 ft 416 kts 62°
2026-04-27 06:49 26.98051 88.87475 19472 ft 417 kts 71°
2026-04-27 06:49 26.98639 88.90652 19243 ft 418 kts 81°
2026-04-27 06:49 26.98969 88.93890 19015 ft 417 kts 81°
2026-04-27 06:50 26.99305 88.97115 18791 ft 416 kts 81°
2026-04-27 06:50 26.99648 89.00325 18564 ft 415 kts 81°
2026-04-27 06:50 26.99993 89.03525 18335 ft 413 kts 81°
2026-04-27 06:50 27.00337 89.06733 18100 ft 412 kts 81°
2026-04-27 06:51 27.00677 89.09916 17841 ft 410 kts 81°
2026-04-27 06:51 27.01010 89.13083 17580 ft 410 kts 81°
2026-04-27 06:51 27.01340 89.16241 17329 ft 403 kts 81°
2026-04-27 06:51 27.01659 89.19320 17075 ft 392 kts 81°
2026-04-27 06:52 27.01969 89.22331 16821 ft 384 kts 81°
2026-04-27 06:52 27.02274 89.25267 16571 ft 375 kts 80°
2026-04-27 06:52 27.02948 89.28030 16327 ft 363 kts 63°
2026-04-27 06:52 27.04273 89.30374 16085 ft 351 kts 46°
2026-04-27 06:53 27.06083 89.32106 15908 ft 337 kts 28°
2026-04-27 06:53 27.08157 89.33144 15906 ft 317 kts 13°
2026-04-27 06:53 27.10230 89.33758 15912 ft 301 kts 12°
2026-04-27 06:53 27.12225 89.34346 15789 ft 290 kts 12°
2026-04-27 06:54 27.14144 89.34912 15686 ft 281 kts 12°
2026-04-27 06:54 27.15378 89.35275 15611 ft 274 kts 12°
2026-04-27 06:54 27.17185 89.35805 15508 ft 264 kts 12°
2026-04-27 06:54 27.18935 89.36318 15389 ft 255 kts 11°
2026-04-27 06:55 27.20627 89.36815 15273 ft 246 kts 12°
2026-04-27 06:55 27.22263 89.37295 15067 ft 242 kts 12°
2026-04-27 06:55 27.23886 89.37771 14820 ft 238 kts 11°
2026-04-27 06:55 27.25944 89.38375 14685 ft 220 kts 11°
2026-04-27 06:56 27.26904 89.38656 14600 ft 211 kts 11°
2026-04-27 06:56 27.28284 89.39061 14405 ft 198 kts 12°
2026-04-27 06:56 27.29544 89.39432 14194 ft 180 kts 12°
2026-04-27 06:56 27.30747 89.39781 13993 ft 180 kts 12°
2026-04-27 06:57 27.31961 89.40134 13758 ft 180 kts 12°
2026-04-27 06:57 27.33177 89.40485 13434 ft 181 kts 12°
2026-04-27 06:57 27.34395 89.40837 13099 ft 180 kts 13°
2026-04-27 06:57 27.35612 89.41187 12751 ft 180 kts 13°
2026-04-27 06:58 27.36845 89.41371 12380 ft 178 kts 355°
2026-04-27 06:58 27.39089 89.40421 11640 ft 171 kts 323°
2026-04-27 06:58 27.39968 89.39547 11390 ft 168 kts 309°
2026-04-27 06:59 27.40668 89.38483 11162 ft 172 kts 300°
2026-04-27 06:59 27.41319 89.37322 10730 ft 177 kts 301°
2026-04-27 06:59 27.42003 89.36193 10425 ft 172 kts 303°
2026-04-27 06:59 27.42718 89.35153 10181 ft 169 kts 311°
2026-04-27 07:00 27.43783 89.34611 9825 ft 174 kts 355°
2026-04-27 07:00 27.44876 89.35081 9387 ft 169 kts 45°
2026-04-27 07:00 27.45359 89.36259 8991 ft 167 kts 89°
2026-04-27 07:00 27.45187 89.37500 8696 ft 159 kts 109°
2026-04-27 07:01 27.44786 89.38630 8432 ft 153 kts 116°
2026-04-27 07:01 27.44346 89.39701 8172 ft 149 kts 116°
2026-04-27 07:01 27.43872 89.40709 8028 ft 143 kts 123°
2026-04-27 07:01 27.43061 89.41300 7761 ft 141 kts 161°
2026-04-27 07:02 27.42108 89.41585 7579 ft 142 kts 168°
2026-04-27 07:02 27.41183 89.41924 7394 ft 141 kts 151°
2026-04-27 07:02 27.40432 89.42405 7347 ft 102 kts 150°
2026-04-27 07:02 27.39967 89.42698 7331 ft 45 kts 150°
2026-04-27 07:03 27.39757 89.42832 7325 ft 30 kts 150°
2026-04-27 07:03 27.39579 89.42945 7320 ft 29 kts 150°
2026-04-27 07:03 27.39480 89.42991 7315 ft 13 kts 165°
2026-04-27 07:03 27.39471 89.43013 7315 ft 0 kts 11°
2026-04-27 07:04 27.39475 89.43010 7315 ft 2 kts 347°
2026-04-27 07:04 27.39492 89.43000 7316 ft 2 kts 333°
2026-04-27 07:04 27.39500 89.42995 7316 ft 1 kts 333°
2026-04-27 07:04 27.39526 89.42980 7317 ft 7 kts 332°
2026-04-27 07:05 27.39585 89.42943 7320 ft 12 kts 330°
2026-04-27 07:05 27.39672 89.42887 7323 ft 17 kts 330°
2026-04-27 07:05 27.39796 89.42808 7323 ft 23 kts 330°
2026-04-27 07:05 27.39938 89.42718 7331 ft 23 kts 330°
2026-04-27 07:06 27.40070 89.42634 7334 ft 21 kts 330°